• Join FlightAware (Why Join?)
  • Login
  • US Flag 
12:21AM EDT


 

Airport Tracker/Info


-or-


 

Live Flight TrackerFlight Track Log ✈ N21EK ✈ 19-May-2013 ✈ KFXE - KSRQ

Flight Track Log - Related Links

Times and Time Zones

All times are in EDT time to prevent confusion due to time zone crossing. See the N21EK flight status page for this flight to view local times or setup timezone preferences in your user account.

Time Position Orientation Groundspeed Altitude Reporting Facility
EDT Latitude Longitude Course Direction KTS MPH feet Rate Location/Type
02:33PM 26.2144 -80.1614 30° Northeast 162 186 2,000  Level Miami Center
02:34PM 26.2319 -80.2106 292° West 172 198 4,600 2,100 Climbing Miami Center
02:35PM 26.2308 -80.2636 269° West 220 253 6,200 2,100 Climbing Miami Center
02:36PM 26.2442 -80.3219 284° West 188 216 8,900 2,040 Climbing Miami Center
02:37PM 26.2514 -80.3639 281° West 182 209 10,500 1,920 Climbing Miami Center
02:38PM 26.2642 -80.4361 281° West 189 217 12,800 1,920 Climbing Miami Center
02:39PM 26.2733 -80.4919 280° West 200 230 14,400 1,740 Climbing Miami Center
02:40PM 26.2864 -80.5594 282° West 205 236 16,300 1,560 Climbing Miami Center
02:41PM 26.2972 -80.6178 282° West 205 236 17,600 1,440 Climbing Miami Center
02:42PM 26.3272 -80.6767 300° West 205 236 19,200 1,200 Climbing Miami Center
02:43PM 26.3614 -80.7242 309° West 205 236 20,000 360 Climbing Miami Center
02:44PM 26.4097 -80.7931 308° West 242 278 20,000  Level Miami Center
02:45PM 26.4517 -80.8547 307° West 275 316 20,000  Level Miami Center
02:46PM 26.4958 -80.9189 308° West 283 326 20,000  Level Miami Center
02:47PM 26.5606 -81.0022 311° West 288 331 20,000  Level Miami Center
02:48PM 26.6086 -81.0736 307° West 293 337 20,000  Level Miami Center
02:49PM 26.6586 -81.1475 307° West 293 337 20,000  Level Miami Center
02:50PM 26.7047 -81.2097 310° West 298 343 20,000  Level Miami Center
02:51PM 26.7547 -81.2836 307° West 298 343 20,000  Level Miami Center
02:52PM 26.8106 -81.3647 308° West 298 343 20,000  Level Miami Center
02:53PM 26.8628 -81.4367 309° West 298 343 20,000  Level Miami Center
02:54PM 26.9233 -81.5019 316° Northwest 298 343 20,000 -300 Level Miami Center
02:55PM 26.9736 -81.5622 313° West 298 343 19,400 -1,080 Descending Miami Center
02:56PM 27.0317 -81.6367 311° West 298 343 17,900 -1,620 Descending Miami Center
02:57PM 27.0881 -81.6997 315° West 293 337 16,200 -1,800 Descending Miami Center
02:58PM 27.1400 -81.7647 312° West 288 331 14,400 -1,800 Descending Miami Center
02:59PM 27.1903 -81.8231 314° West 276 318 12,600 -1,800 Descending Miami Center
03:00PM 27.2342 -81.8808 311° West 261 300 10,800 -1,680 Descending Miami Center
03:01PM 27.2589 -81.9519 291° West 250 288 9,300 -1,500 Descending Miami Center
03:02PM 27.2728 -82.0250 282° West 244 281 7,800 -1,560 Descending Miami Center
03:03PM 27.2892 -82.0981 284° West 244 281 6,200 -1,440 Descending Miami Center
03:04PM 27.2844 -82.1681 266° West 233 268 5,000 -900 Descending Miami Center
03:05PM 27.2842 -82.2289 270° West 220 253 4,400 -780 Descending Miami Center
03:06PM 27.2819 -82.2894 268° West 200 230 3,500 -960 Descending Miami Center
03:07PM 27.2817 -82.3547 270° West 200 230 2,500 -1,020 Descending Miami Center
03:08PM 27.2833 -82.4000 272° West 212 244 2,000 -540 Descending Tampa TRACON
03:09PM 27.3000 -82.4500 291° West 185 213 1,800 -180 Descending Tampa TRACON
03:10PM 27.3333 -82.4833 318° Northwest 116 133 1,700 -300 Descending Tampa TRACON
03:11PM 27.3500 -82.5000 318° Northwest 97 112 1,200 -540 Descending Tampa TRACON
03:12PM 27.3667 -82.5167 318° Northwest 108 124 700 -540 Descending Tampa TRACON
03:14PM 27.3833 -82.5500 281° West  Level FlightAware Approximate
03:21PM 27.3954 -82.5544 281° West  Level Estimated
03:22PM 27.3954 -82.5544 281° West  Level Estimated